| time (UTC) | temp C | wind direction | speed KPH | gust KPH | rain 1hr cm | rain 24hr cm | rain mn cm | humidity % | barometer mb |
| 20260507064725 | 7 | 69 | 20.9 | 24.1 | 0.00 | 0.00 | 0.00 | 57 | |
| 20260507062724 | 6 | 71 | 20.9 | 25.7 | 0.00 | 0.00 | 0.00 | 59 | |
| 20260507054724 | 6 | 72 | 24.1 | 29.0 | 0.00 | 0.00 | 0.00 | 57 | |
| 20260507052724 | 6 | 66 | 22.5 | 27.4 | 0.00 | 0.00 | 0.00 | 55 | |
| 20260507050724 | 6 | 65 | 22.5 | 27.4 | 0.00 | 0.00 | 0.00 | 51 | |
| 20260507044724 | 6 | 60 | 20.9 | 27.4 | 0.00 | 0.00 | 0.00 | 51 | |
| 20260507042724 | 5 | 57 | 20.9 | 24.1 | 0.00 | 0.00 | 0.00 | 57 | |
| 20260507040724 | 5 | 54 | 20.9 | 24.1 | 0.00 | 0.00 | 0.00 | 58 | |
| 20260507032725 | 5 | 53 | 20.9 | 24.1 | 0.00 | 0.00 | 0.00 | 59 | |
| 20260507030724 | 4 | 51 | 22.5 | 25.7 | 0.00 | 0.00 | 0.00 | 57 | |
| 20260507024724 | 4 | 48 | 22.5 | 25.7 | 0.00 | 0.00 | 0.00 | 53 | |
| 20260507022724 | 4 | 50 | 24.1 | 25.7 | 0.00 | 0.00 | 0.00 | 56 | |
| 20260507020724 | 4 | 51 | 22.5 | 25.7 | 0.00 | 0.00 | 0.00 | 62 | |
| 20260507012723 | 4 | 54 | 24.1 | 25.7 | 0.00 | 0.00 | 0.00 | 58 | |
| 20260507010724 | 4 | 54 | 22.5 | 25.7 | 0.00 | 0.00 | 0.00 | 58 | |
| 20260507004723 | 5 | 44 | 22.5 | 25.7 | 0.00 | 0.00 | 0.00 | 52 | |
| 20260507001051 | 5 | 44 | 24.1 | 27.4 | 0.00 | 0.00 | 0.00 | 49 | |
| 20260506234724 | 5 | 41 | 19.3 | 22.5 | 0.00 | 0.00 | 0.00 | 53 | |
| 20260506232723 | 5 | 36 | 19.3 | 22.5 | 0.00 | 0.00 | 0.00 | 54 | |
| 20260506230725 | 5 | 38 | 17.7 | 20.9 | 0.00 | 0.00 | 0.00 | 53 | |
| 20260506224723 | 5 | 27 | 19.3 | 22.5 | 0.00 | 0.00 | 0.00 | 55 | |
| 20260506222723 | 5 | 24 | 17.7 | 20.9 | 0.00 | 0.00 | 0.00 | 60 | |
| 20260506220723 | 4 | 16 | 14.5 | 19.3 | 0.00 | 0.00 | 0.00 | 91 | |
| 20260506214723 | 4 | 346 | 11.3 | 11.3 | 0.00 | 0.00 | 0.00 | 91 | |
| 20260506212723 | 4 | 313 | 11.3 | 12.9 | 0.00 | 0.00 | 0.00 | 89 | |
| 20260506210723 | 5 | 285 | 12.9 | 12.9 | 0.00 | 0.00 | 0.00 | 86 | |
| 20260506204723 | 5 | 259 | 14.5 | 16.1 | 0.00 | 0.00 | 0.00 | 85 | |
| 20260506202723 | 5 | 256 | 16.1 | 17.7 | 0.00 | 0.00 | 0.00 | 84 | |
| 20260506200723 | 5 | 250 | 17.7 | 19.3 | 0.00 | 0.00 | 0.00 | 84 | |
| 20260506194722 | 5 | 237 | 17.7 | 20.9 | 0.00 | 0.00 | 0.00 | 77 | |
| 20260506192722 | 5 | 234 | 17.7 | 20.9 | 0.00 | 0.00 | 0.00 | 74 | |
| 20260506190722 | 6 | 235 | 17.7 | 20.9 | 0.00 | 0.00 | 0.00 | 73 | |
| 20260506184722 | 6 | 237 | 17.7 | 20.9 | 0.00 | 0.00 | 0.00 | 72 | |
| 20260506182723 | 6 | 232 | 16.1 | 20.9 | 0.00 | 0.00 | 0.00 | 71 | |
| 20260506180723 | 6 | 245 | 19.3 | 24.1 | 0.00 | 0.00 | 0.00 | 70 | |
| 20260506174722 | 6 | 241 | 20.9 | 24.1 | 0.00 | 0.00 | 0.00 | 70 | |
| 20260506172721 | 6 | 234 | 20.9 | 27.4 | 0.00 | 0.00 | 0.00 | 73 | |
| 20260506170722 | 6 | 227 | 20.9 | 25.7 | 0.00 | 0.00 | 0.00 | 73 | |
| 20260506164721 | 7 | 240 | 24.1 | 27.4 | 0.00 | 0.00 | 0.00 | 71 | |
| 20260506162722 | 6 | 234 | 19.3 | 25.7 | 0.00 | 0.00 | 0.00 | 70 | |
| 20260506160722 | 7 | 233 | 19.3 | 24.1 | 0.00 | 0.00 | 0.00 | 69 | |
| 20260506154722 | 7 | 234 | 17.7 | 24.1 | 0.00 | 0.00 | 0.00 | 68 | |
| 20260506152722 | 7 | 245 | 24.1 | 30.6 | 0.00 | 0.00 | 0.00 | 66 | |
| 20260506150721 | 7 | 243 | 24.1 | 30.6 | 0.00 | 0.00 | 0.00 | 65 | |
| 20260506144721 | 7 | 244 | 25.7 | 35.4 | 0.00 | 0.00 | 0.00 | 70 | |
| 20260506142721 | 7 | 243 | 29.0 | 33.8 | 0.00 | 0.00 | 0.00 | 67 | |
| 20260506140721 | 7 | 237 | 29.0 | 33.8 | 0.00 | 0.00 | 0.00 | 66 | |
| 20260506134721 | 7 | 241 | 30.6 | 33.8 | 0.00 | 0.00 | 0.00 | 70 | |
| 20260506132721 | 7 | 242 | 27.4 | 33.8 | 0.00 | 0.00 | 0.00 | 64 | |
| 20260506130720 | 8 | 249 | 32.2 | 37.0 | 0.00 | 0.00 | 0.00 | 62 | |
| 20260506124720 | 8 | 244 | 27.4 | 35.4 | 0.00 | 0.00 | 0.00 | 62 | |
| 20260506122721 | 8 | 234 | 27.4 | 35.4 | 0.00 | 0.00 | 0.00 | 63 | |
| 20260506120720 | 8 | 227 | 29.0 | 33.8 | 0.00 | 0.00 | 0.00 | 67 | |
| 20260506114721 | 7 | 226 | 29.0 | 35.4 | 0.00 | 0.00 | 0.00 | 72 | |
| 20260506112721 | 7 | 229 | 30.6 | 35.4 | 0.00 | 0.00 | 0.00 | 73 | |
| 20260506110721 | 7 | 230 | 29.0 | 38.6 | 0.00 | 0.00 | 0.00 | 74 | |
| 20260506104721 | 7 | 225 | 30.6 | 37.0 | 0.00 | 0.00 | 0.00 | 73 | |
| 20260506102722 | 7 | 224 | 24.1 | 35.4 | 0.00 | 0.00 | 0.00 | 71 | |
| 20260506100722 | 6 | 221 | 25.7 | 33.8 | 0.00 | 0.00 | 0.00 | 76 | |
| 20260506094722 | 7 | 224 | 24.1 | 30.6 | 0.00 | 0.00 | 0.00 | 72 | |
| 20260506092721 | 7 | 231 | 19.3 | 27.4 | 0.00 | 0.00 | 0.00 | 76 | |
| 20260506090721 | 7 | 234 | 22.5 | 27.4 | 0.00 | 0.00 | 0.00 | 74 | |
| 20260506084722 | 7 | 237 | 24.1 | 27.4 | 0.00 | 0.00 | 0.00 | 73 | |
| 20260506082722 | 7 | 235 | 24.1 | 29.0 | 0.00 | 0.00 | 0.00 | 72 | |
| 20260506080721 | 6 | 232 | 17.7 | 25.7 | 0.00 | 0.00 | 0.00 | 79 | |
| 20260506072722 | 7 | 230 | 14.5 | 20.9 | 0.00 | 0.00 | 0.00 | 78 | |
| 20260506070721 | 6 | 236 | 16.1 | 19.3 | 0.00 | 0.00 | 0.00 | 75 |